User: anonymous   Login
Location: Unspecified
(0.0000°N, 0.0000°E)
Time: 09:14:05
(UTC+00:00)
Language:

CHUBUSAT 2 - Orbit

View from above orbital plane
View from above orbital plane
View from above satellite
View from above satellite

Ground track
Ground track

The orbit data is extracted from the following two-line orbital elements,

1 41338U 16012B   17084.95589242 +.00000532 +00000-0 +35230-4 0  9990
2 41338 031.0034 280.8455 0014088 315.0893 044.8602 14.99676066060480
Epoch (UTC): 25 March 2017 22:56:29
Eccentricity: 0.0014088
inclination: 31.0034°
perigee height: 558 km
apogee height: 577 km
right ascension of ascending node: 280.8455°
argument of perigee: 315.0893°
revolutions per day: 14.99676066
mean anomaly at epoch: 44.8602°
orbit number at epoch: 6048

The dashed part of the orbit path shows where the satellite is in the earth's shadow,  

DLR